Погода в Амамиосиме

Япония     28°16′59″N   129°22′00″E
темп.,
°C
ветер,
м/с
пор.,
м/с
влажн.,
%
обл.,
%
осадки,
мм/ч
давл.,
гПа
погр.,
м
18 мая, ср
ср1800:00+20ссв567190 0.0 1016590
03:00+20ссв578231 0.0 1015614
06:00+20св577989 0.1 1016571
09:00+21св7873100 0.1 1017722
12:00+22св7874100 0.0 1018799
15:00+21св8981100 0.1 1017744
18:00+21всв6108097 0.0 1016676
21:00+21всв598590 0.1 1018581
19 мая, чт
чт1900:00+21в4786100 0.2 1018447
03:00+20всв4788100 0.3 1017307
06:00+20всв5888100 0.1 1018366
09:00+22всв6878100 0.1 1018834
12:00+23в5774100 0.1 1018850
15:00+24в4673100 0.1 1016835
18:00+22всв5778100 0.0 1016641
21:00+21в4886100 0.1 1017479
20 мая, пт
пт2000:00+21в5788100 0.0 1015433
03:00+21в3486100 0.1 1014290
06:00+21вюв4588100 0.0 1014281
09:00+22в3586100 0.2 1014317
12:00+22всв1285100 1.0 1013149
15:00+20в4687100 5.8 1012501
18:00+19св4791100 3.6 1010373
21:00+20вюв3691100 10.1 1010470
21 мая, сб
сб2100:00+19вюв4993100 8.8 1009437
03:00+20в61193100 15.2 1007632
06:00+21в5893100 7.9 1006487
09:00+21всв71092100 26.4 1006522
12:00+21всв81291100 5.1 1005844
15:00+20св111690100 17.8 1005783
18:00+20всв101487100 2.6 1005666
21:00+21всв91485100 2.7 1004742
22 мая, вс
вс2200:00+21всв8138499 0.0 1004862
03:00+21св7118460 0.1 1003768
06:00+21св9128432 0.1 1004870
09:00+22св10128148 0.1 1006934
12:00+23св8107995 0.2 1006999
15:00+23св8979100 0.4 1005874
18:00+22св6880100 0.1 1007715
21:00+21св4883100 0.2 1008542